User: anonymous   Login
Location: Ústí nad Labem
(50.6611°N, 14.0531°E)
Time: 05:58:46
(UTC+02:00)
Language:

Tiros 1 - Orbit

View from above orbital plane
View from above orbital plane
View from above satellite
View from above satellite

Ground track
Ground track

The orbit data is extracted from the following two-line orbital elements,

1 00029U 60002B   24112.55299177  .00002626  00000-0  40398-3 0  9997
2 00029  48.3763 156.9725 0022710 125.5348 234.7686 14.76205931425790
Epoch (UTC): 21 April 2024 13:16:18
Eccentricity: 0.0022710
inclination: 48.3763°
perigee height: 625 km
apogee height: 657 km
right ascension of ascending node: 156.9725°
argument of perigee: 125.5348°
revolutions per day: 14.76205931
mean anomaly at epoch: 234.7686°
orbit number at epoch: 42579

The dashed part of the orbit path shows where the satellite is in the earth's shadow,  

DLR